Location: Cahas Mountain Overlook
(37.0833°N, 80.1000°W)
Time: 11:48:44
(UTC-05:00)

Courier 1B - Pass Details

Date: 11 December 2023
Orbit: 962 x 1209 km, 28.3° (Epoch: 29 February)

Event Time Altitude Azimuth Distance (km) Brightness Sun altitude
Rises 05:57:07 0° 222° (SW) 4,034 10.5 -16.7°
Reaches altitude 10° 06:00:35 10° 210° (SSW) 3,038 9.9 -16.1°
Maximum altitude 06:06:18 24° 160° (SSE) 2,126 9.7 -15.0°
Drops below altitude 10° 06:11:46 10° 109° (ESE) 2,904 11.4 -14.0°
Sets 06:14:59 0° 96° (E) 3,816 12.3 -13.3°
